Location: Newark
(34.3481°N, 134.0494°E)
Time: 14:10:23
(UTC+00:00)

Vanguard 3 - Pass Details

Date: 27 January 2020
Orbit: 508 x 3263 km, 33.3° (Epoch: 23 February)

Event Time Altitude Azimuth Distance (km) Brightness Sun altitude
Rises 07:11:53 0° 234° (SW) 6,429 13.8 13.0°
Reaches altitude 10° 07:15:47 10° 231° (SW) 5,668 14.4 12.3°
Maximum altitude 07:34:19 66° 155° (SSE) 3,461 10.5 9.1°
Drops below altitude 10° 07:52:31 10° 79° (ENE) 5,596 10.8 5.8°
Sets 07:56:19 0° 76° (ENE) 6,349 11.0 5.1°
